COSMOS 1867 COOLANT

Satellite information

Favourite Embed

Satellite Type and Status

DEBRISIN ORBIT

Key statistics

Satellite COSMOS 1867 COOLANT at a glance.

Uptime

14037

Days in orbit

Revolutions

≈ 14.3

Per day

Orbit

LEO

Low Earth Orbit

Inclination

65.0

Latest

Satellite identification and parameters

Extended collection of information and parameters for COSMOS 1867 COOLANT.

Object identification

Identified? True

Debris? False

Object name: COSMOS 1867 COOLANT

International designator: 1987-060AG

Object number (NORAD): 39669

Object ID (CCSDS): 39669

Country: COMMONWEALTH OF INDEPENDENT STATES (CIS)

Current information (Y/N): Y

RCS size: SMALL

Orbital parameters

Period: 100.431 minutes

Inclination: 65.0111 deg

SMA: 7157.114 km

Apoapsis: 788.311 km

Periapsis: 769.647 km

RAAN: 173.5303 deg

Eccentricy: 0.00130384

Argument of periapsis: 273.175 deg

Mean anomaly: 86.7843 deg

Mean motion: 14.33824103 rev/day

Mean motion (dot): 0.00000478 rev/day2

B* drag term: 0.00020756719 1/REarth

Two-line elements (TLE)

Creation date: Dec. 13, 2025, 5:47 p.m.

Reference frame: TEME

Reference center: EARTH

Epoch: Dec. 13, 2025, 3:11 a.m. UTC

TLE line 0: 0 COSMOS 1867 COOLANT

TLE line 1: 1 39669U 87060AG 25347.13319966 .00000478 00000-0 20757-3 0 9996

TLE line 2: 2 39669 65.0111 173.5303 0013038 273.1750 86.7843 14.33824103610025

Live tracking on map

Real-time ground track for satellite COSMOS 1867 COOLANT.

In-orbit conjunctions

A list of the most updated potential collisions computed for object COSMOS 1867 COOLANT.

Target Orbit TCA Probability of collision Miss distance Type
OSCAR 18 (WEBERSAT) SSO 2025-02-28 11:39:47 0.0001253166 265.0 (m) PAYLOAD
THOR BURNER 2 R/B SSO 2024-10-23 11:04:53 0.0001674047 393.0 (m) ROCKET BODY
NOAA 16 DEB SSO 2024-07-20 23:36:50 0.0001097113 412.0 (m) DEBRIS

Associated space launch

Nuclear-powered magnetospheric research satellite

COSMOS 1867 COOLANT was lifted into orbit during the mission ‘Tsiklon-2 | Plasma-A 2’, on board a Tsiklon-2 space rocket.

The launch took place on July 10, 1987, 3:35 p.m. from 90.

For more information about the launch, click the button.

Launch to space Tsiklon-2 | Plasma-A 2
Tsiklon-2 | Plasma-A 2

Agency: N/A

Status: Launch Successful

Launch date: July 10, 1987, 3:35 p.m. UTC

Rocket: Tsiklon-2

Launch pad: 90

Location: Baikonur Cosmodrome, Republic of Kazakhstan

...

Latest news about this satellite

There are no fresh news available about this satellite. Check back as we update our databases every day.


Newsletter sign-up

Weekly statistics, charts and insights to help you stay on top of the space industry.